{"data":{"norad_id":63485,"epoch":"2026-05-25T04:00:03.998880Z","epoch_age_seconds":60786,"freshness":"FRESH","line1":"1 63485U 25070AB  26145.16671295  .00004254  00000+0  16402-3 0  9995","line2":"2 63485  43.0000 187.5914 0001260 265.9648 158.9667 15.27581277  5900","mean_motion":15.27581277,"eccentricity":0.000126,"inclination_deg":43,"raan_deg":187.5914,"arg_perigee_deg":265.9648,"mean_anomaly_deg":158.9667,"bstar":0.00016402,"rev_number":590,"period_min":94.266669910226,"perigee_km":482.18076327862,"apogee_km":483.90978121122,"semimajor_km":6861.1822722449,"source":"CELESTRAK","updated_at":"2026-05-25T13:38:20.010489Z"}}